Lincoln, NE

2:27 AM CST on December 11, 2017 (GMT -0600)
Lincoln Municipal

Weather History for KLNK - October, 2010

Change the Weather History Date:

Wednesday, October 6, 2010

  Actual Average Record
Temperature  
Mean Temperature 65 °F 57 °F  
Max Temperature 80 °F 70 °F 93 °F (1963)
Min Temperature 49 °F 44 °F 24 °F (2000)
Degree Days  
Heating Degree Days 0 9  
Month to date heating degree days 54 48  
Since 1 July heating degree days 110 146  
Cooling Degree Days 0 1  
Month to date cooling degree days 0 6  
Year to date cooling degree days 1296 1164  
Growing Degree Days 15 (Base 50)    
Moisture  
Dew Point 49 °F    
Average Humidity 68    
Maximum Humidity 93    
Minimum Humidity 42    
Precipitation  
Precipitation 0.00 in 0.07 in 1.18 in (2017)
Month to date precipitation 0.00 0.46  
Year to date precipitation 32.08 25.06  
Snow  
Snow 0.00 in 0.00 in - ()
Month to date snowfall 0.0 0.0  
Since 1 July snowfall 0.0 T  
Snow Depth 0.00 in    
Sea Level Pressure  
Sea Level Pressure 30.19 in    
Wind  
Wind Speed 6 mph (NNW)    
Max Wind Speed 17 mph    
Max Gust Speed 21 mph    
Visibility 10 miles    
Events      
T = Trace of Precipitation, MM = Missing Value Source: NWS Daily Summary

Daily Weather History Graph

Daily Weather History Graph

Search for Another Location

Airport or City:

Trip Planner

Search our weather history database for the weather conditions in past years. The results will help you decide how hot, cold, wet, or windy it might be!

Date:

Astronomy

Oct. 06, 2010 Rise Set
Actual Time 7:28 AM CDT 7:00 PM CDT
Civil Twilight 7:01 AM CDT 7:28 PM CDT
Nautical Twilight 6:29 AM CDT 7:59 PM CDT
Astronomical Twilight 5:57 AM CDT 8:31 PM CDT
Moon 6:06 AM CDT (10/6) 6:04 PM CDT (10/6)
Length of Visible Light 12h 26m
Length of Day
11h 32m
Waning Crescent, 2% of the Moon is Illuminated
Oct 6
Waning Crescent
Oct 7
New
Oct 14
First Quarter
Oct 22
Full
Oct 30
Last Quarter

Hourly Weather History & Observations

Time (CDT) Temp. Dew Point Humidity Pressure Visibility Wind Dir Wind Speed Gust Speed Precip Events Conditions
12:54 AM 54.0 °F 45.0 °F 72% 30.22 in 10.0 mi SSE 5.8 mph - N/A   Clear
1:54 AM 53.1 °F 45.0 °F 74% 30.22 in 10.0 mi Calm Calm - N/A   Clear
2:54 AM 52.0 °F 45.0 °F 77% 30.21 in 10.0 mi SE 3.5 mph - N/A   Clear
3:54 AM 54.0 °F 44.1 °F 69% 30.19 in 10.0 mi Calm Calm - N/A   Clear
4:54 AM 55.0 °F 43.0 °F 64% 30.19 in 10.0 mi South 3.5 mph - N/A   Clear
5:54 AM 55.0 °F 44.1 °F 67% 30.20 in 10.0 mi SSW 4.6 mph - N/A   Clear
6:54 AM 51.1 °F 43.0 °F 74% 30.21 in 10.0 mi South 5.8 mph - N/A   Clear
7:54 AM 52.0 °F 44.1 °F 74% 30.22 in 10.0 mi Calm Calm - N/A   Clear
8:54 AM 55.0 °F 45.0 °F 69% 30.22 in 10.0 mi SW 8.1 mph - N/A   Clear
9:54 AM 62.1 °F 46.9 °F 58% 30.21 in 10.0 mi WSW 6.9 mph - N/A   Clear
10:54 AM 66.9 °F 51.1 °F 57% 30.21 in 10.0 mi NNW 9.2 mph - N/A   Clear
11:54 AM 72.0 °F 54.0 °F 53% 30.20 in 10.0 mi NW 10.4 mph - N/A   Clear
12:54 PM 73.9 °F 54.0 °F 50% 30.19 in 10.0 mi NNW 8.1 mph - N/A   Clear
1:54 PM 77.0 °F 55.0 °F 47% 30.17 in 10.0 mi North 8.1 mph - N/A   Clear
2:54 PM 79.0 °F 54.0 °F 42% 30.15 in 10.0 mi NNE 11.5 mph - N/A   Clear
3:54 PM 79.0 °F 54.0 °F 42% 30.14 in 10.0 mi NNE 11.5 mph - N/A   Clear
4:54 PM 77.0 °F 54.0 °F 45% 30.15 in 10.0 mi NNE 13.8 mph - N/A   Clear
5:54 PM 75.0 °F 54.0 °F 48% 30.15 in 10.0 mi North 10.4 mph - N/A   Clear
6:54 PM 68.0 °F 55.0 °F 63% 30.16 in 9.0 mi North 6.9 mph - N/A   Clear
7:54 PM 64.0 °F 54.0 °F 70% 30.17 in 10.0 mi NNW 5.8 mph - N/A   Clear
8:54 PM 64.0 °F 53.1 °F 67% 30.19 in 10.0 mi NNW 5.8 mph - N/A   Clear
9:54 PM 54.0 °F 51.1 °F 90% 30.19 in 8.0 mi North 5.8 mph - N/A   Clear
10:54 PM 53.1 °F 46.0 °F 77% 30.20 in 10.0 mi NNW 5.8 mph - N/A   Clear
11:54 PM 50.0 °F 43.0 °F 77% 30.21 in 10.0 mi Calm Calm - N/A   Clear